{"data":{"norad_id":54653,"epoch":"2026-05-25T00:53:23.741376Z","epoch_age_seconds":71769,"freshness":"FRESH","line1":"1 54653U 22166M   26145.03708034  .00000050  00000+0  89411-4 0  9994","line2":"2 54653  87.9253 248.6016 0002122  96.7337 263.4038 13.21827475168469","mean_motion":13.21827475,"eccentricity":0.0002122,"inclination_deg":87.9253,"raan_deg":248.6016,"arg_perigee_deg":96.7337,"mean_anomaly_deg":263.4038,"bstar":8.9411e-5,"rev_number":16846,"period_min":108.94008690506,"perigee_km":1176.1443886487,"apogee_km":1179.3511061355,"semimajor_km":7555.8847473921,"source":"CELESTRAK","updated_at":"2026-05-25T13:38:22.629692Z"}}